GW3346 Weather Reports


time (UTC)temp
C
wind
direction
speed
KPH
gust
KPH
rain 1hr
cm
rain 24hr
cm
rain mn
cm
humidity
%
barometer
mb
20260507003542 10 270 4.8 6.4 0.00 0.00 0.00 68 1014.4
20260507003037 10 270 3.2 4.8 0.00 0.00 0.00 69 1014.4
20260507002534 11 270 6.4 8.0 0.00 0.00 0.00 69 1014.4
20260507002025 11 270 8.0 9.7 0.00 0.00 0.00 70 1014.4
20260507001521 11 270 6.4 6.4 0.00 0.00 0.00 71 1014.4
20260507001019 11 270 6.4 6.4 0.00 0.00 0.00 71 1014.4
20260507000515 11 270 4.8 6.4 0.00 0.00 0.00 70 1014.4
20260507000010 11 270 4.8 6.4 0.00 0.00 0.00 70 1014.4
20260506235507 11 270 6.4 8.0 0.00 0.00 0.00 70 1014.4
20260506234958 11 270 4.8 8.0 0.00 0.00 0.00 68 1014.1
20260506234455 11 270 6.4 9.7 0.00 0.00 0.00 67 1014.1
20260506233952 11 270 8.0 11.3 0.00 0.00 0.00 67 1014.4
20260506233449 12 272 8.0 11.3 0.00 0.00 0.00 66 1014.1
20260506232945 12 272 8.0 9.7 0.00 0.00 0.00 66 1014.1
20260506232442 12 273 8.0 11.3 0.00 0.00 0.00 66 1014.4
20260506231937 12 273 8.0 9.7 0.00 0.00 0.00 67 1014.4
20260506231435 12 273 6.4 9.7 0.00 0.00 0.00 66 1014.4
20260506230932 12 273 4.8 6.4 0.00 0.00 0.00 65 1014.4
20260506230428 12 273 9.7 12.9 0.00 0.00 0.00 64 1014.4
20260506225925 12 275 11.3 12.9 0.00 0.00 0.00 62 1014.4
20260506225422 12 275 8.0 11.3 0.00 0.00 0.00 63 1014.4
20260506224919 12 275 4.8 6.4 0.00 0.00 0.00 64 1014.8
20260506224416 12 276 8.0 11.3 0.00 0.00 0.00 64 1014.8
20260506223913 12 280 6.4 11.3 0.00 0.00 0.00 65 1014.8
20260506223408 12 280 6.4 8.0 0.00 0.00 0.00 67 1014.8
20260506222906 12 280 6.4 8.0 0.00 0.00 0.00 66 1014.8
20260506222402 12 313 4.8 8.0 0.00 0.00 0.00 64 1014.8
20260506221859 12 292 8.0 11.3 0.00 0.00 0.00 66 1014.8
20260506221356 12 298 6.4 8.0 0.00 0.00 0.00 63 1014.8
20260506220853 11 298 6.4 8.0 0.00 0.00 0.00 61 1014.8
20260506220349 11 263 8.0 11.3 0.00 0.00 0.00 60 1014.8
20260506215846 12 269 11.3 16.1 0.00 0.00 0.00 59 1014.8
20260506215341 12 283 9.7 14.5 0.00 0.00 0.00 59 1014.4
20260506214833 12 269 6.4 8.0 0.00 0.00 0.00 60 1014.4
20260506214329 12 269 8.0 9.7 0.00 0.00 0.00 58 1014.4
20260506213828 12 269 6.4 8.0 0.00 0.00 0.00 57 1014.4
20260506213324 12 298 8.0 11.3 0.00 0.00 0.00 59 1014.8
20260506212822 12 271 8.0 14.5 0.00 0.00 0.00 56 1014.4
20260506212317 12 290 9.7 14.5 0.00 0.00 0.00 55 1014.4
20260506211813 12 278 9.7 12.9 0.00 0.00 0.00 53 1014.4
20260506211309 12 281 11.3 14.5 0.00 0.00 0.00 52 1014.1
20260506210807 12 273 11.3 16.1 0.00 0.00 0.00 56 1014.1
20260506210303 12 274 14.5 17.7 0.00 0.00 0.00 61 1014.1
20260506205800 12 269 6.4 11.3 0.00 0.00 0.00 63 1014.1
20260506205256 12 297 4.8 6.4 0.00 0.00 0.00 58 1014.1
20260506204753 12 297 6.4 8.0 0.00 0.00 0.00 60 1014.1
20260506204251 12 297 8.0 11.3 0.00 0.00 0.00 63 1014.1
20260506203748 12 301 8.0 9.7 0.00 0.00 0.00 61 1014.1
20260506203245 12 301 8.0 12.9 0.00 0.00 0.00 61 1014.1
20260506202742 12 289 9.7 14.5 0.00 0.00 0.00 60 1014.1
20260506202239 12 278 8.0 11.3 0.00 0.00 0.00 61 1014.1
20260506201736 12 284 8.0 14.5 0.00 0.00 0.00 61 1014.1
20260506201232 12 298 6.4 8.0 0.00 0.00 0.00 61 1014.1
20260506200730 12 298 8.0 12.9 0.00 0.00 0.00 61 1014.1
20260506200226 12 306 9.7 14.5 0.00 0.00 0.00 60 1014.1
20260506195722 12 303 9.7 14.5 0.00 0.00 0.00 58 1014.1
20260506195218 12 295 9.7 12.9 0.00 0.00 0.00 56 1014.1
20260506194710 12 276 11.3 17.7 0.00 0.00 0.00 56 1014.1
20260506194206 12 274 6.4 9.7 0.00 0.00 0.00 57 1014.1
20260506193659 12 297 8.0 11.3 0.00 0.00 0.00 57 1014.1
20260506193155 12 269 11.3 16.1 0.00 0.00 0.00 59 1014.1
20260506192651 12 302 9.7 14.5 0.00 0.00 0.00 61 1014.1
20260506192147 12 281 8.0 11.3 0.00 0.00 0.00 60 1014.1
20260506191640 12 281 8.0 11.3 0.00 0.00 0.00 60 1014.1
20260506191136 12 281 6.4 9.7 0.00 0.00 0.00 63 1014.1
20260506190633 12 302 6.4 8.0 0.00 0.00 0.00 58 1014.1
20260506190129 12 302 6.4 9.7 0.00 0.00 0.00 63 1014.1
20260506185627 12 302 9.7 11.3 0.00 0.00 0.00 58 1014.1
20260506185123 12 292 6.4 8.0 0.00 0.00 0.00 62 1014.1
20260506184620 12 302 6.4 8.0 0.00 0.00 0.00 60 1014.4
20260506184117 12 272 8.0 11.3 0.00 0.00 0.00 60 1014.4
20260506183614 12 301 6.4 8.0 0.00 0.00 0.00 64 1014.4
20260506183109 12 301 8.0 9.7 0.00 0.00 0.00 64 1014.4
20260506182607 12 274 4.8 6.4 0.00 0.00 0.00 64 1014.4
20260506182059 12 274 6.4 8.0 0.00 0.00 0.00 62 1014.4
20260506181557 12 267 1.6 8.0 0.00 0.00 0.00 60 1014.1
20260506181053 12 280 6.4 8.0 0.00 0.00 0.00 60 1014.4
20260506180550 12 263 6.4 9.7 0.00 0.00 0.00 65 1014.1
20260506180047 12 323 6.4 8.0 0.00 0.00 0.00 65 1014.4
20260506175543 12 327 6.4 9.7 0.00 0.00 0.00 65 1014.4
20260506175039 12 296 6.4 6.4 0.00 0.00 0.00 63 1014.4
20260506174538 12 296 6.4 6.4 0.00 0.00 0.00 63 1014.4
20260506174034 12 296 4.8 6.4 0.00 0.00 0.00 64 1014.4
20260506173532 12 296 6.4 9.7 0.00 0.00 0.00 64 1014.4
20260506173028 12 280 9.7 14.5 0.00 0.00 0.00 64 1014.4
20260506172526 12 311 8.0 12.9 0.00 0.00 0.00 66 1014.4
20260506172022 12 319 6.4 9.7 0.00 0.00 0.00 65 1014.1
20260506171519 12 343 3.2 4.8 0.00 0.00 0.00 64 1014.1
20260506171017 12 340 9.7 14.5 0.00 0.00 0.00 65 1014.1
20260506170514 13 331 12.9 17.7 0.00 0.00 0.00 64 1013.7
20260506170006 13 302 8.0 9.7 0.00 0.00 0.00 62 1013.7
20260506165504 13 320 9.7 16.1 0.00 0.00 0.00 67 1013.7
20260506165000 12 325 9.7 14.5 0.00 0.00 0.00 66 1013.7
20260506164457 12 336 12.9 19.3 0.00 0.00 0.00 69 1014.1
20260506163954 12 349 8.0 9.7 0.00 0.00 0.00 66 1014.1
20260506163449 13 352 12.9 14.5 0.00 0.00 0.00 66 1014.1
20260506162944 13 283 6.4 9.7 0.00 0.00 0.00 67 1014.1
20260506162442 12 318 9.7 16.1 0.00 0.00 0.00 67 1014.1
20260506161940 12 311 6.4 11.3 0.00 0.00 0.00 70 1013.7
20260506161437 12 346 9.7 12.9 0.00 0.00 0.00 71 1013.4
20260506152802 12 329 9.7 12.9 0.00 0.00 0.00 67 1013.7
20260506152259 12 329 9.7 12.9 0.00 0.00 0.00 67 1013.7
20260506151758 12 336 11.3 16.1 0.00 0.00 0.00 67 1013.7
20260506150647 12 340 4.8 6.4 0.00 0.00 0.00 71 1013.4
20260506150144 12 340 4.8 6.4 0.00 0.00 0.00 71 1013.4
20260506145641 12 331 9.7 16.1 0.00 0.00 0.00 72 1013.4
20260506145138 11 324 6.4 12.9 0.00 0.00 0.00 75 1013.1
20260506144636 11 324 9.7 11.3 0.00 0.00 0.00 76 1013.4
20260506144132 11 311 4.8 9.7 0.00 0.00 0.00 76 1013.1
20260506143630 11 311 11.3 14.5 0.00 0.00 0.00 77 1013.1
20260506143127 11 336 8.0 12.9 0.00 0.00 0.00 78 1013.1
20260506142626 11 336 8.0 9.7 0.00 0.00 0.00 77 1013.1
20260506142123 11 347 14.5 17.7 0.00 0.00 0.00 81 1013.1
20260506141621 10 311 8.0 11.3 0.00 0.00 0.00 79 1013.1
20260506141119 10 338 9.7 17.7 0.00 0.00 0.00 80 1013.1
20260506140616 10 312 9.7 12.9 0.00 0.00 0.00 82 1013.1
20260506140113 10 306 9.7 14.5 0.00 0.00 0.00 80 1013.1
20260506135610 10 327 8.0 12.9 0.00 0.00 0.00 83 1013.1
20260506135106 10 306 6.4 8.0 0.00 0.00 0.00 81 1013.1
20260506134603 10 306 9.7 12.9 0.00 0.00 0.00 84 1013.4
20260506134058 10 320 9.7 14.5 0.00 0.00 0.00 84 1013.4
20260506133556 10 308 8.0 12.9 0.00 0.00 0.00 85 1013.1
20260506133053 10 292 8.0 12.9 0.00 0.00 0.00 86 1013.1
20260506132550 9 300 8.0 9.7 0.00 0.00 0.00 87 1013.1
20260506132047 9 284 8.0 9.7 0.00 0.00 0.00 88 1013.1
20260506131544 9 302 9.7 12.9 0.00 0.00 0.00 89 1013.1
20260506131041 8 300 6.4 9.7 0.00 0.00 0.00 89 1013.1
20260506130538 8 317 6.4 9.7 0.00 0.00 0.00 90 1013.1
20260506130035 8 317 4.8 6.4 0.00 0.00 0.00 91 1013.1
20260506125533 8 317 6.4 9.7 0.00 0.00 0.00 91 1013.1
20260506125031 7 332 4.8 8.0 0.00 0.00 0.00 92 1013.1
20260506124529 7 332 3.2 6.4 0.00 0.00 0.00 94 1013.1
20260506124026 7 332 3.2 4.8 0.00 0.00 0.00 93 1013.1
20260506123524 7 332 1.6 3.2 0.00 0.00 0.00 94 1012.6
20260506123022 7 332 3.2 8.0 0.00 0.00 0.00 96 1012.6
20260506122518 7 340 4.8 8.0 0.00 0.00 0.00 98 1012.6
20260506122016 7 340 3.2 6.4 0.00 0.00 0.00 99 1012.3
20260506121514 6 340 3.2 6.4 0.00 0.00 0.00 100 1012.3
20260506121010 6 340 3.2 4.8 0.00 0.00 0.00 100 1012.0
20260506120508 6 340 6.4 8.0 0.00 0.00 0.00 100 1012.0
20260506120005 6 340 6.4 8.0 0.00 0.00 0.00 100 1012.0
20260506115502 6 340 4.8 6.4 0.00 0.00 0.00 100 1012.0
20260506115001 6 340 4.8 6.4 0.00 0.00 0.00 100 1012.0
20260506114458 6 340 4.8 6.4 0.00 0.00 0.00 100 1011.6
20260506113956 6 340 6.4 8.0 0.00 0.00 0.00 100 1011.6
20260506113454 6 340 4.8 6.4 0.00 0.00 0.00 100 1011.6
20260506112950 6 340 4.8 6.4 0.00 0.00 0.00 100 1011.3
20260506112448 6 340 1.6 4.8 0.00 0.00 0.00 100 1011.6
20260506111945 6 340 1.6 3.2 0.00 0.00 0.00 100 1011.3
20260506111443 6 340 4.8 6.4 0.00 0.00 0.00 100 1011.3
20260506110940 6 340 4.8 6.4 0.00 0.00 0.00 100 1010.9
20260506110438 5 340 4.8 6.4 0.00 0.00 0.00 100 1010.6
20260506105934 5 340 6.4 8.0 0.00 0.00 0.00 100 1010.6
20260506105430 5 340 3.2 4.8 0.00 0.00 0.00 100 1010.6
20260506104928 6 340 4.8 6.4 0.00 0.00 0.00 100 1010.6
20260506104426 6 340 3.2 4.8 0.00 0.00 0.00 100 1010.6
20260506103924 5 340 4.8 6.4 0.00 0.00 0.00 100 1010.6
20260506103421 5 340 6.4 6.4 0.00 0.00 0.00 100 1010.6
20260506102917 5 340 4.8 6.4 0.00 0.00 0.00 100 1010.6
20260506102416 5 340 6.4 6.4 0.00 0.00 0.00 100 1010.6
20260506101913 5 340 6.4 8.0 0.00 0.00 0.00 100 1010.3
20260506101409 5 340 6.4 8.0 0.00 0.00 0.00 100 1010.3
20260506100906 5 340 6.4 8.0 0.00 0.00 0.00 100 1010.3
20260506100404 5 340 4.8 6.4 0.00 0.00 0.00 100 1010.6
20260506095902 5 340 6.4 8.0 0.00 0.00 0.00 100 1010.3
20260506095400 5 340 4.8 6.4 0.00 0.00 0.00 100 1010.3
20260506094856 5 340 6.4 6.4 0.00 0.00 0.00 100 1010.3
20260506094355 5 340 6.4 8.0 0.00 0.00 0.00 100 1010.3
20260506093852 5 340 4.8 4.8 0.00 0.00 0.00 100 1010.3
20260506093350 5 340 6.4 6.4 0.00 0.00 0.00 100 1009.9
20260506092848 5 340 8.0 8.0 0.00 0.00 0.00 100 1009.9
20260506092345 5 340 6.4 9.7 0.00 0.00 0.00 100 1010.3
20260506091836 5 340 6.4 6.4 0.00 0.00 0.00 100 1009.9
20260506091334 5 340 9.7 11.3 0.00 0.00 0.00 100 1009.9
20260506090831 5 340 9.7 11.3 0.00 0.00 0.00 100 1009.9
20260506090328 5 340 8.0 9.7 0.00 0.00 0.00 100 1009.9
20260506085824 5 340 6.4 8.0 0.00 0.00 0.00 100 1009.9
20260506085320 5 340 8.0 9.7 0.00 0.00 0.00 100 1009.9
20260506084812 5 356 6.4 9.7 0.00 0.00 0.00 100 1009.9
20260506084308 5 356 6.4 8.0 0.00 0.00 0.00 100 1009.9
20260506083805 5 356 4.8 8.0 0.00 0.00 0.00 100 1009.9
20260506083303 5 356 4.8 6.4 0.00 0.00 0.00 100 1009.9
20260506082800 5 356 6.4 6.4 0.00 0.00 0.00 100 1009.6
20260506082256 5 356 6.4 8.0 0.00 0.00 0.00 100 1009.1
20260506081753 5 356 8.0 9.7 0.00 0.00 0.00 100 1009.1
20260506081251 5 356 6.4 8.0 0.00 0.00 0.00 100 1008.8
20260506080749 5 356 8.0 9.7 0.00 0.00 0.00 100 1009.1
20260506080245 5 356 8.0 9.7 0.00 0.00 0.00 100 1009.1
20260506073229 5 5 6.4 8.0 0.00 0.00 0.00 100 1009.9
20260506072726 5 6 4.8 6.4 0.00 0.00 0.00 100 1009.9
20260506072223 6 6 6.4 6.4 0.00 0.00 0.00 100 1009.6
20260506071721 6 6 6.4 6.4 0.00 0.00 0.00 100 1009.6
20260506071218 6 6 6.4 8.0 0.00 0.00 0.00 100 1009.6
20260506070715 6 6 8.0 9.7 0.00 0.00 0.00 100 1009.1
20260506070212 6 6 9.7 11.3 0.00 0.00 0.00 100 1009.1
20260506062149 6 346 8.0 9.7 0.00 0.00 0.00 99 1009.9
20260506061645 6 346 12.9 16.1 0.00 0.00 0.00 99 1009.9
20260506061143 6 346 11.3 12.9 0.00 0.00 0.00 99 1010.3
20260506060641 6 338 12.9 16.1 0.00 0.00 0.00 99 1010.3
20260506060138 6 338 11.3 14.5 0.00 0.00 0.00 99 1010.3
20260506051110 6 9 11.3 14.5 0.00 0.00 0.00 99 1009.9
20260506050608 6 9 12.9 16.1 0.00 0.00 0.00 99 1009.9
20260506050105 6 10 12.9 16.1 0.00 0.00 0.00 100 1009.9
20260506045058 6 0 9.7 11.3 0.00 0.00 0.00 100 1009.9
20260506044556 6 0 9.7 12.9 0.00 0.00 0.00 100 1009.9
20260506044052 6 0 12.9 16.1 0.00 0.00 0.00 100 1009.6
20260506043549 6 356 12.9 17.7 0.00 0.00 0.00 100 1009.6
20260506043048 6 351 14.5 17.7 0.00 0.00 0.00 100 1009.9
20260506042547 6 354 12.9 17.7 0.00 0.00 0.00 100 1010.3
20260506042044 6 354 12.9 17.7 0.00 0.00 0.00 100 1010.3
20260506041543 6 0 14.5 16.1 0.00 0.00 0.00 100 1009.9
20260506041039 6 3 14.5 17.7 0.00 0.00 0.00 100 1009.9
20260506040537 6 3 14.5 17.7 0.00 0.00 0.00 100 1009.6
20260506040032 6 13 17.7 22.5 0.00 1.73 1.73 100 1009.9
20260506035530 6 9 17.7 20.9 0.00 1.73 1.73 100 1009.6
20260506035026 6 12 16.1 19.3 0.00 1.73 1.73 100 1009.6
20260506034524 6 22 16.1 19.3 0.00 1.73 1.73 100 1009.6
20260506034021 6 3 14.5 17.7 0.00 1.73 1.73 100 1009.6
20260506033518 6 23 17.7 20.9 0.00 1.73 1.73 100 1009.6
20260506033015 6 25 16.1 19.3 0.00 1.73 1.73 99 1009.6
20260506032512 7 14 19.3 24.1 0.00 1.73 1.73 99 1009.9
20260506032009 7 18 20.9 24.1 0.00 1.73 1.73 100 1009.9
20260506031507 7 16 19.3 22.5 0.00 1.73 1.73 100 1010.3
20260506031004 7 7 16.1 19.3 0.00 1.73 1.73 100 1009.9
20260506030502 7 8 19.3 22.5 0.00 1.73 1.73 100 1009.9
20260506025959 7 23 20.9 24.1 0.00 1.73 1.73 100 1009.6
20260506025455 7 17 17.7 19.3 0.00 1.73 1.73 100 1009.6
20260506024952 7 25 17.7 20.9 0.00 1.73 1.73 100 1009.6
20260506024448 7 20 16.1 20.9 0.00 1.73 1.73 100 1009.6
20260506023944 7 31 11.3 14.5 0.00 1.73 1.73 100 1009.9
20260506023441 8 31 11.3 14.5 0.00 1.73 1.73 100 1009.9
20260506022938 7 31 11.3 14.5 0.00 1.73 1.73 100 1009.6
20260506022436 7 30 12.9 16.1 0.00 1.73 1.73 100 1009.6
20260506021934 7 41 8.0 9.7 0.00 1.73 1.73 100 1009.6
20260506021431 7 36 12.9 16.1 0.00 1.73 1.73 100 1009.9
20260506020927 8 33 9.7 12.9 0.00 1.73 1.73 100 1009.6
20260506020425 7 33 8.0 9.7 0.00 1.73 1.73 100 1009.9
20260506015922 7 33 9.7 11.3 0.00 1.73 1.73 100 1009.6
20260506015420 7 33 9.7 12.9 0.00 1.73 1.73 100 1009.6
20260506014917 7 33 9.7 11.3 0.00 1.73 1.73 100 1009.6
20260506014414 7 30 8.0 9.7 0.00 1.73 1.73 100 1009.6
20260506013910 7 30 9.7 11.3 0.00 1.73 1.73 100 1009.6
20260506013408 7 26 9.7 11.3 0.00 1.73 1.73 100 1009.6
20260506012904 7 23 8.0 9.7 0.00 1.73 1.73 100 1009.1
20260506012401 7 20 9.7 11.3 0.00 1.73 1.73 100 1009.1
20260506011858 7 20 11.3 12.9 0.00 1.73 1.73 100 1009.1
20260506011355 7 355 8.0 11.3 0.00 1.73 1.73 100 1009.1
20260506010852 7 355 8.0 9.7 0.00 1.73 1.73 100 1008.8
20260506010350 7 352 8.0 9.7 0.00 1.73 1.73 100 1008.8
20260506005847 7 349 9.7 12.9 0.00 1.73 1.73 100 1009.1
20260506005344 7 349 9.7 12.9 0.00 1.73 1.73 100 1009.1
20260506004839 7 349 11.3 12.9 0.00 1.73 1.73 100 1009.1
20260506004337 7 349 11.3 14.5 0.00 1.73 1.73 100 1009.6